Location: Fountain Hills
(33.6120°N, 111.7170°W)
Time: 16:30:18
(UTC-07:00)

Daily predictions for brighter satellites

Satellite Brightness Start Highest point End
(mag) Time Altitude Azimuth Time Altitude Azimuth Time Altitude Azimuth
Cosmos 1833 4.2 20:01:29 10° S 20:07:07 65° ESE 20:12:44 10° NNE
H-2A R/B 2.7 20:08:00 10° SSE 20:11:51 78° ENE 20:15:39 10° N
Cosmos 1151 Rocket 4.2 20:10:43 10° NNE 20:14:19 25° ENE 20:17:55 10° SE
USA 186 0.8 20:12:35 10° S 20:14:48 88° W 20:17:05 10° N
CZ-2D R/B 3.7 20:14:58 10° S 20:18:49 64° W 20:22:40 10° NNW
H-2A R/B 2.0 20:15:54 10° SW 20:19:10 20° S 20:20:37 12° SE
Cosmos 1437 Rocket 3.2 20:18:15 10° N 20:21:55 43° E 20:25:37 10° SSE
ATLAS 2AS CENTAUR R/B 4.4 20:20:30 10° SE 20:23:28 13° ESE 20:26:31 10° ENE
Cosmos 1939 Rocket 3.9 20:20:37 10° SE 20:24:00 29° ENE 20:27:24 10° NNE
ERS-1 Rocket 3.2 20:20:16 10° SSE 20:25:07 53° ENE 20:30:01 10° N
Envisat 3.9 20:22:38 10° SE 20:27:05 32° ENE 20:31:33 10° N
COSMOS 2428 4.3 20:23:23 10° NNE 20:27:31 20° ENE 20:31:37 10° ESE
Cosmos 2266 Rocket 4.1 20:25:25 10° S 20:31:37 62° E 20:37:44 10° NNE
ATLAS CENTAUR R/B 3.7 20:30:07 10° WNW 20:33:16 20° WSW 20:36:16 10° SSW
OTV 4 1.3 20:30:45 10° SW 20:33:24 30° SSE 20:35:43 12° E
Sakura Rocket 4.4 20:33:01 10° SSW 20:35:50 17° SSE 20:37:09 15° SE
Cosmos 1726 4.4 20:36:36 10° ENE 20:37:27 11° ENE 20:38:17 10° E
Cosmos 1553 Rocket 4.3 20:34:33 10° N 20:40:55 74° W 20:47:09 10° S
OAO 2 Rocket 3.4 20:36:04 10° WSW 20:41:18 65° SSE 20:46:35 10° E
H-2A R/B 2.3 20:39:20 13° SSE 20:43:20 57° ENE 20:47:47 10° N
ALOS 3.6 20:39:32 10° SSW 20:43:53 39° W 20:48:16 10° NNW
YAOGAN 11 4.4 20:40:53 10° S 20:45:08 67° WSW 20:49:30 10° NNW
Tiangong 1 2.1 20:42:17 10° W 20:45:17 47° NNW 20:48:18 10° NE
NOSS 3-1 (C) 3.3 20:40:53 10° SSW 20:46:34 68° ESE 20:52:46 10° NE
Cosmos 1328 Rocket 4.5 20:42:56 10° NNW 20:47:14 49° W 20:51:29 10° SSW
Cosmos 1328 3.9 20:44:33 10° S 20:48:24 54° E 20:52:16 10° NNE
Meteor 2-2 Rocket 4.4 20:43:53 10° N 20:49:56 88° W 20:55:58 10° S
Cosmos 2298 Rocket 4.4 20:46:48 10° S 20:51:49 44° ESE 20:56:51 10° NNE
Cosmos 2219 3.2 20:49:17 10° SSW 20:55:02 87° ESE 21:00:49 10° NNE
Cosmos 2237 Rocket 4.3 21:01:38 10° NNE 21:04:16 13° NE 21:06:53 10° E
DELTA 2 R/B (1) 3.5 21:00:17 10° WNW 21:05:52 87° NNE 21:09:25 23° ESE
Cosmos 2322 Rocket 4.0 21:02:17 10° NW 21:06:53 27° WSW 21:11:29 10° SSW
Aureole 3 4.4 21:00:57 10° S 21:07:50 88° E 21:13:21 10° N
SL-14 R/B 3.7 21:07:01 29° SE 21:08:28 41° E 21:12:14 10° NNE
MetOp-B 4.4 21:05:20 23° SE 21:08:29 51° ENE 21:13:39 10° N
Cosmos 2322 3.7 21:02:46 10° NNW 21:08:31 86° WSW 21:12:29 21° SSE
Cosmos 405 3.6 21:05:54 10° NNW 21:09:27 54° W 21:12:01 17° S
PSLV R/B 3.2 21:11:22 43° SE 21:12:03 57° ENE 21:15:04 10° N
CZ-4B R/B 3.7 21:07:53 10° NNE 21:13:01 51° E 21:16:09 22° SSE
Cosmos 2360 Rocket 2.3 21:09:43 10° NNW 21:15:21 72° WSW 21:19:13 21° S
SL-16 R/B 4.2 21:14:54 10° NW 21:19:11 22° W 21:23:27 10° SSW
H-2A R/B 3.8 21:17:35 16° E 21:19:15 19° ENE 21:22:54 10° NNE
Cosmos 1680 Rocket 3.7 21:16:13 10° NNW 21:21:26 70° WSW 21:24:44 23° S
Meteor 1-27 4.3 21:17:24 10° N 21:23:00 60° E 21:25:38 31° SSE
Cosmos 304 Rocket 4.2 21:18:17 10° NNW 21:23:01 59° WSW 21:25:55 23° S
SPOT 5 2.7 21:21:14 27° SSE 21:23:42 86° WSW 21:28:30 10° NNW
Delta 2 Rocket 3.2 21:20:56 10° WNW 21:24:32 62° N 21:25:46 35° ENE
Cosmos 2151 4.3 21:21:06 10° SSW 21:25:01 39° W 21:28:59 10° N
YAOGAN 6 2.7 21:24:39 47° ESE 21:25:19 56° ENE 21:28:53 10° N
Cosmos 1898 Rocket 3.4 21:24:28 10° SSW 21:29:39 90° ENE 21:34:52 10° NNE
SPOT 1/Viking Rocket 3.7 21:29:28 35° SE 21:31:26 58° ENE 21:36:29 10° N
Cosmos 858 Rocket 4.4 21:29:12 13° SSW 21:33:54 89° ESE 21:39:08 10° NNE
Cosmos 2058 3.6 21:31:09 16° SSW 21:34:17 52° W 21:38:18 10° N
Cosmos 1300 2.6 21:34:16 10° N 21:38:07 86° W 21:38:53 56° S
Cosmos 2227 Rocket 2.4 21:37:26 36° SSE 21:39:15 50° ESE 21:44:42 10° NNE
Cosmos 2150 Rocket 4.3 21:34:47 10° SSW 21:40:11 71° WNW 21:45:40 10° NNE
Sich 1 3.1 21:40:01 33° SSW 21:41:57 80° W 21:46:21 10° N
Cosmos 2242 Rocket 3.6 21:41:49 10° N 21:46:16 61° E 21:46:50 55° ESE
Cosmos 292 Rocket 4.0 21:41:49 10° N 21:46:28 51° ENE 21:47:11 47° ESE
Cosmos 1633 Rocket 3.1 21:45:26 36° SSW 21:47:08 74° W 21:51:31 10° N
Landsat 7 4.3 21:49:13 40° E 21:49:45 41° ENE 21:54:13 10° N
Hubble Space Telescope 2.8 21:46:33 10° SW 21:47:42 17° SW 21:47:42 17° SW
NOSS 3-1 (A) 4.2 21:45:37 10° SW 21:51:15 51° NW 21:57:26 10° NNE
USA 245 4.5 21:52:57 24° NNW 21:52:57 24° NNW 21:54:02 10° NNW
ERBS 3.3 21:55:20 13° WSW 21:58:13 48° NW 22:01:37 10° NNE
SL-16 R/B 4.1 21:55:11 10° NNE 21:58:41 16° ENE 22:00:04 15° ENE
Cosmos 2333 Rocket 2.7 21:54:47 10° N 22:00:17 45° ENE 22:01:24 40° E
Cosmos 1455 3.6 21:57:03 10° NNE 21:59:30 28° NE 21:59:30 28° NE
DELTA 2 DEB (DPAF) 4.2 22:03:05 62° E 22:03:12 62° ENE 22:07:38 10° N
H-2A R/B 3.7 22:00:13 10° WSW 22:04:37 58° SSE 22:32:32 10° E
ARGOS 3.1 22:03:47 49° S 22:05:16 79° WSW 22:10:41 10° NNW
Terra 2.4 22:05:35 42° ENE 22:05:37 42° ENE 22:10:05 10° N
Cosmos 2297 Rocket 2.2 22:05:33 57° SE 22:06:04 59° ESE 22:11:37 10° NNE
OTV 4 3.2 22:06:45 10° W 22:07:20 14° W 22:07:20 14° W
COSMOS 2428 3.3 22:06:33 10° NNW 22:12:00 49° WSW 22:13:39 38° SSW
IGS 5A 4.4 22:12:54 38° NE 22:12:54 38° NE 22:16:09 10° N
Cosmos 1726 3.4 22:09:28 10° NNW 22:12:57 35° W 22:13:08 35° W
ATLAS 2AS CENTAUR R/B 2.8 22:06:56 15° SSW 22:13:09 84° ESE 22:21:09 10° NNE
DMSP B5D2-2 4.0 22:09:44 10° NNE 22:14:55 65° ESE 22:15:00 65° ESE
Cosmos 2219 Rocket 2.0 22:10:04 10° NNW 22:15:41 83° ENE 22:16:27 67° SE
USA 32 4.2 22:11:29 10° N 22:16:42 67° W 22:17:50 52° SSW
SL-08 RB Rocket 3.8 22:17:05 63° WSW 22:17:17 64° WSW 22:21:45 10° NNW
Tiangong 1 3.9 22:20:16 10° NW 22:22:21 16° N 22:23:07 15° N
OAO 2 Rocket 3.5 22:20:52 10° W 22:26:13 77° N 22:27:04 61° ENE
Cosmos 1869 4.3 22:23:21 10° N 22:26:11 41° NNE 22:26:11 41° NNE
Meteor 1-4 Rocket 4.3 22:27:07 10° NNW 22:29:55 29° WNW 22:29:55 29° WNW
ATLAS 3B R/B 3.6 22:24:25 10° NNW 22:30:43 35° NE 22:32:31 30° E
Cosmos 1980 3.5 22:31:01 10° NNW 22:36:41 89° ENE 22:36:52 85° SSE
Cosmos 2237 Rocket 2.1 22:43:15 10° NNW 22:48:54 79° W 22:48:54 79° W
Cosmos 1626 4.1 22:50:49 27° NW 22:50:49 27° NW 22:53:18 10° NNW
Nadezhda 1 Rocket 4.3 22:44:50 10° NNW 22:50:46 55° W 22:51:47 49° SW
H-2A R/B 2.7 22:58:14 48° W 22:58:14 48° W 23:03:27 10° NNW
Cosmos 1269 Rocket 4.4 22:56:22 10° NNW 23:00:54 61° NNE 23:00:54 61° NNE
SeaSat 1 3.9 23:06:12 27° NE 23:06:12 27° NE 23:09:58 10° N
Meteor 2-3 Rocket 4.5 23:07:30 42° NE 23:07:30 42° NE 23:11:45 10° NNE
Cosmos 1709 Rocket 4.1 23:07:14 61° WSW 23:07:42 63° W 23:13:45 10° N
Lacrosse 4 Rocket 3.0 23:08:26 10° NNW 23:11:13 35° N 23:11:13 35° N
Cosmos 1125 Rocket 4.4 23:17:24 42° WNW 23:17:37 42° WNW 23:22:40 10° N
Cosmos 2227 Rocket 4.4 23:19:32 10° WSW 23:23:33 20° WNW 23:27:37 10° NNW
COSMOS 2455 3.3 23:35:27 10° NNW 23:40:19 55° WNW 23:40:19 55° WNW
SL-16 R/B 2.9 23:37:36 10° NNW 23:41:56 49° NW 23:41:56 49° NW
Terra 4.2 23:44:28 15° W 23:44:28 15° W 23:46:22 10° NW
CZ-4C R/B 4.2 23:37:48 10° N 23:43:58 30° NE 23:46:52 24° E
Cosmos 2333 Rocket 4.1 23:40:01 10° NW 23:43:25 20° W 23:43:25 20° W
Cosmos 2184 Rocket 4.1 23:46:39 69° NNW 23:46:39 69° NNW 23:52:11 10° N
CZ-2C R/B 4.4 23:48:07 10° NE 23:50:19 21° ENE 23:50:19 21° ENE
